FENGYUN 1C DEB

Satellite information

Favourite Embed

Satellite Type and Status

DEBRISIN ORBIT

Key statistics

Satellite FENGYUN 1C DEB at a glance.

Uptime

9714

Days in orbit

Revolutions

≈ 14.2

Per day

Orbit

SSO

Sun Synchronous Orbit

Inclination

98.5

Latest

Satellite identification and parameters

Extended collection of information and parameters for FENGYUN 1C DEB.

Object identification

Identified? True

Debris? True

Object name: FENGYUN 1C DEB

International designator: 1999-025EEN

Object number (NORAD): 37054

Object ID (CCSDS): 37054

Country: PEOPLES REPUBLIC OF CHINA (PRC)

Current information (Y/N): Y

RCS size: SMALL

Orbital parameters

Period: 101.449 minutes

Inclination: 98.5491 deg

SMA: 7205.427 km

Apoapsis: 899.843 km

Periapsis: 754.741 km

RAAN: 316.1491 deg

Eccentricy: 0.01006888

Argument of periapsis: 144.0639 deg

Mean anomaly: 216.7364 deg

Mean motion: 14.19427383 rev/day

Mean motion (dot): 0.0000058 rev/day2

B* drag term: 0.00028093156 1/REarth

Two-line elements (TLE)

Creation date: Nov. 29, 2025, 7:07 p.m.

Reference frame: TEME

Reference center: EARTH

Epoch: Nov. 29, 2025, 5:17 a.m. UTC

TLE line 0: 0 FENGYUN 1C DEB

TLE line 1: 1 37054U 99025EEN 25333.22058404 .00000580 00000-0 28093-3 0 9993

TLE line 2: 2 37054 98.5491 316.1491 0100689 144.0639 216.7364 14.19427383642376

Live tracking on map

Real-time ground track for satellite FENGYUN 1C DEB.

In-orbit conjunctions

A list of the most updated potential collisions computed for object FENGYUN 1C DEB.

Target Orbit TCA Probability of collision Miss distance Type
SL-8 R/B LEO 2025-06-12 17:29:03 0.0006765673 75.0 (m) ROCKET BODY
FENGYUN 1C DEB SSO 2024-11-09 05:20:47 0.0004927903 479.0 (m) DEBRIS

Associated space launch

Chinese polar orbiting meteorological satellite

FENGYUN 1C DEB was lifted into orbit during the mission ‘Long March 4B | Feng Yun 1C’, on board a Long March 4B space rocket.

The launch took place on May 10, 1999, 1:33 a.m. from Launch Complex 7.

For more information about the launch, click the button.

Launch to space Long March 4B | Feng Yun 1C
Long March 4B | Feng Yun 1C

Agency: N/A

Status: Launch Successful

Launch date: May 10, 1999, 1:33 a.m. UTC

Rocket: Long March 4B

Launch pad: Launch Complex 7

Location: Taiyuan Satellite Launch Center, People's Republic of China

...

Latest news about this satellite

There are no fresh news available about this satellite. Check back as we update our databases every day.


Newsletter sign-up

Weekly statistics, charts and insights to help you stay on top of the space industry.